User: anonymous   Login
Location: Unspecified
(0.0000°N, 0.0000°E)
Time: 11:35:28
(UTC+00:00)
Language:

CUTE 1.7 + AOD 2 - Orbit

View from above orbital plane
View from above orbital plane
View from above satellite
View from above satellite

Ground track
Ground track

The orbit data is extracted from the following two-line orbital elements,

1 32785U 08021C   18108.94312805 +.00000211 +00000-0 +28563-4 0  9998
2 32785 097.5502 123.9421 0011852 230.5189 129.4981 14.88096426540294
Epoch (UTC): 18 April 2018 22:38:06
Eccentricity: 0.0011852
inclination: 97.5502°
perigee height: 595 km
apogee height: 612 km
right ascension of ascending node: 123.9421°
argument of perigee: 230.5189°
revolutions per day: 14.88096426
mean anomaly at epoch: 129.4981°
orbit number at epoch: 54029

The dashed part of the orbit path shows where the satellite is in the earth's shadow,  

DLR